Location: Pinawa
(50.1500°N, 95.8830°W)
Time: 11:46:11
(UTC-05:00)

Amateur Radio Satellites - All Passes

Search period start: 25 October 2014 11:16
Search period end: 26 October 2014 11:16
Location: Pinawa, 50.1500°N, 95.8830°W

Satellite Date Start Highest point End Downlink Frequencies (MHz)
Time Altitude Azimuth
Sapphire 25 Oct 11:26:22 11:30:50 25° 32° (NNE) 11:35:17 437.095 MHz 1200 baud AX-25 AFSK
ZACube-1 25 Oct 11:39:40 11:43:55 57° 101° (E) 11:48:03 437.345 MHz
UKube-1 25 Oct 11:43:49 11:48:09 61° 289° (WNW) 11:52:27 145.840 MHz, 145.915 MHz
JAS-1B 25 Oct 11:48:11 11:49:34 11° 43° (NE) 11:50:57 435.800 - 435.900 CW/SSB
PCSat 25 Oct 11:48:49 11:53:42 32° 38° (NE) 11:58:34 145.825 MHz
KITSAT 1 25 Oct 11:58:27 12:05:01 29° 107° (ESE) 12:11:37 435.175 FM
HO-68 25 Oct 12:03:13 12:09:48 40° 302° (WNW) 12:16:22 435.675 MHz FM
Oscar 16 25 Oct 12:23:47 12:27:16 19° 56° (NE) 12:30:46 437.025 USB, Beacon 2401.1428
FUNcube-1 25 Oct 12:24:23 12:28:35 52° 289° (WNW) 12:32:39 145.950 - 145.970 MHz USB
Oscar 11 25 Oct 12:25:26 12:29:02 26° 296° (WNW) 12:32:37 145.825 FM, Beacon 2401.500 USB
Uribyol 2 25 Oct 12:45:27 12:48:11 15° 51° (NE) 12:50:55 436.500 FM
ITAMSAT 1 25 Oct 12:51:25 12:54:20 15° 52° (NE) 12:57:14 435.822 SSB
Saudisat 1A 25 Oct 12:55:25 12:57:25 13° 3° (N) 12:59:25 436.775 MHz
ISS 25 Oct 12:58:20 13:00:10 14° 138° (SE) 13:02:00 145.800 FM
Sapphire 25 Oct 13:09:32 13:15:01 87° 54° (NE) 13:20:28 437.095 MHz 1200 baud AX-25 AFSK
Gurwin Techsat 1B 25 Oct 13:15:20 13:17:55 14° 51° (NE) 13:20:31 435.225 FM
Oscar 19 25 Oct 13:15:22 13:20:12 43° 66° (ENE) 13:25:02 437.125 CW, 437.150 USB
ZACube-1 25 Oct 13:16:54 13:19:56 19° 300° (WNW) 13:22:54 437.345 MHz
TMSAT-1 25 Oct 13:26:26 13:28:47 13° 50° (NE) 13:31:08 436.925 FM
PCSat 25 Oct 13:32:07 13:37:30 63° 240° (WSW) 13:42:50 145.825 MHz
JAS-1B 25 Oct 13:33:21 13:38:58 53° 67° (ENE) 13:44:30 435.800 - 435.900 CW/SSB
AO-7 25 Oct 13:34:21 13:38:46 16° 32° (NNE) 13:43:11 29.400 - 29.500 MHz
SO-50 25 Oct 13:35:00 13:39:16 43° 121° (ESE) 13:43:41 436.795 FM
AO-27 25 Oct 13:35:07 13:39:38 31° 62° (ENE) 13:44:12 436.795 MHz FM
AO-Echo 25 Oct 13:51:01 13:55:43 46° 67° (ENE) 14:00:37 ?
KITSAT 1 25 Oct 13:51:32 13:59:38 83° 309° (NW) 14:07:47 435.175 FM
HO-68 25 Oct 13:53:07 13:55:39 12° 325° (NW) 13:58:11 435.675 MHz FM
Oscar 16 25 Oct 14:00:51 14:06:02 83° 255° (WSW) 14:11:13 437.025 USB, Beacon 2401.1428
Uribyol 2 25 Oct 14:21:35 14:26:47 72° 71° (ENE) 14:32:02 436.500 FM
ITAMSAT 1 25 Oct 14:27:48 14:33:00 76° 72° (ENE) 14:38:15 435.822 SSB
ISS 25 Oct 14:33:03 14:36:20 58° 156° (SSE) 14:39:38 145.800 FM
Saudisat 1A 25 Oct 14:35:05 14:38:34 22° 28° (NNE) 14:42:03 436.775 MHz
Gurwin Techsat 1B 25 Oct 14:51:42 14:56:58 67° 71° (ENE) 15:02:16 435.225 FM
Sapphire 25 Oct 14:54:11 14:57:45 18° 254° (WSW) 15:01:18 437.095 MHz 1200 baud AX-25 AFSK
Oscar 19 25 Oct 14:55:07 14:59:40 31° 265° (W) 15:04:15 437.125 CW, 437.150 USB
UOSAT-12 25 Oct 14:55:21 14:59:21 29° 117° (ESE) 15:03:25 437.025 FM, 437.400 FM
TMSAT-1 25 Oct 15:02:30 15:07:44 63° 70° (ENE) 15:13:00 436.925 FM
AO-27 25 Oct 15:13:59 15:18:59 47° 261° (W) 15:24:03 436.795 MHz FM
SO-50 25 Oct 15:15:37 15:19:54 38° 323° (NW) 15:24:20 436.795 FM
PCSat 25 Oct 15:18:36 15:19:50 11° 259° (W) 15:21:05 145.825 MHz
AO-7 25 Oct 15:21:52 15:29:33 45° 56° (NE) 15:37:16 29.400 - 29.500 MHz
JAS-1B 25 Oct 15:25:18 15:30:06 26° 267° (W) 15:34:49 435.800 - 435.900 CW/SSB
AO-Echo 25 Oct 15:30:28 15:34:43 28° 267° (W) 15:39:06 ?
Uosat F 25 Oct 15:37:25 15:41:29 25° 60° (ENE) 15:45:35 435.120 FM
Oscar 16 25 Oct 15:43:49 15:46:12 13° 274° (W) 15:48:36 437.025 USB, Beacon 2401.1428
KITSAT 1 25 Oct 15:48:58 15:56:13 34° 334° (NNW) 16:03:28 435.175 FM
Uribyol 2 25 Oct 16:03:08 16:06:49 19° 271° (W) 16:10:31 436.500 FM
ITAMSAT 1 25 Oct 16:09:35 16:13:06 18° 271° (W) 16:16:38 435.822 SSB
ISS 25 Oct 16:09:43 16:13:03 67° 356° (N) 16:16:23 145.800 FM
JAS-2 25 Oct 16:12:23 16:17:07 22° 50° (NE) 16:22:14 435.800 - 435.900 CW/SSB, 435.910 FM
Saudisat 1A 25 Oct 16:14:19 16:18:46 84° 49° (NE) 16:23:12 436.775 MHz
Gurwin Techsat 1B 25 Oct 16:33:30 16:37:26 21° 270° (W) 16:41:24 435.225 FM
UOSAT-12 25 Oct 16:34:42 16:39:18 53° 317° (NW) 16:43:58 437.025 FM, 437.400 FM
TMSAT-1 25 Oct 16:44:02 16:48:06 22° 269° (W) 16:52:12 436.925 FM
SO-50 25 Oct 16:58:47 17:01:45 16° 346° (NNW) 17:04:45 436.795 FM
AO-7 25 Oct 17:14:10 17:22:14 55° 258° (WSW) 17:30:22 29.400 - 29.500 MHz
Uosat F 25 Oct 17:15:02 17:19:58 56° 259° (W) 17:24:57 435.120 FM
OPAL 25 Oct 17:19:05 17:19:59 10° 87° (E) 17:20:54 ?
ISS 25 Oct 17:46:31 17:49:52 90° 24° (NNE) 17:53:14 145.800 FM
KITSAT 1 25 Oct 17:47:41 17:54:14 26° 4° (N) 18:00:47 435.175 FM
Hamsat 25 Oct 17:54:05 17:58:12 55° 72° (ENE) 18:02:18 145.90 MHz
JAS-2 25 Oct 17:55:00 18:01:09 86° 73° (ENE) 18:08:12 435.800 - 435.900 CW/SSB, 435.910 FM
Saudisat 1A 25 Oct 17:55:06 17:57:45 16° 248° (WSW) 18:00:24 436.775 MHz
UOSAT-12 25 Oct 18:17:06 18:20:28 19° 340° (NNW) 18:23:51 437.025 FM, 437.400 FM
SO-67 25 Oct 18:33:45 18:36:14 19° 65° (ENE) 18:38:43 435.3500 MHz FM
AO-40 25 Oct 18:34:01 23:55:06 33° 184° (S) 05:27:43 Beacon 2401.320
SO-50 25 Oct 18:41:17 18:44:08 16° 11° (N) 18:47:02 436.795 FM
OPAL 25 Oct 18:54:49 18:59:48 71° 106° (ESE) 19:04:44 ?
STRAND 1 25 Oct 19:02:55 19:05:59 16° 88° (E) 19:09:03 ?
HO-68 25 Oct 19:04:18 19:08:52 19° 44° (NE) 19:13:26 435.675 MHz FM
AO-7 25 Oct 19:14:27 19:17:02 12° 280° (W) 19:19:38 29.400 - 29.500 MHz
ISS 25 Oct 19:23:27 19:26:19 26° 215° (SW) 19:29:10 145.800 FM
Hamsat 25 Oct 19:31:40 19:34:30 17° 270° (W) 19:37:20 145.90 MHz
JAS-2 25 Oct 19:42:52 19:47:18 20° 277° (W) 19:52:07 435.800 - 435.900 CW/SSB, 435.910 FM
KITSAT 1 25 Oct 19:44:28 19:52:02 41° 32° (NNE) 19:59:34 435.175 FM
UOSAT-12 25 Oct 19:59:47 20:02:24 14° 5° (N) 20:05:00 437.025 FM, 437.400 FM
SO-67 25 Oct 20:05:48 20:09:00 36° 263° (W) 20:12:13 435.3500 MHz FM
SO-50 25 Oct 20:21:45 20:26:06 33° 35° (NE) 20:30:30 436.795 FM
OPAL 25 Oct 20:34:33 20:38:13 21° 305° (NW) 20:41:51 ?
STRAND 1 25 Oct 20:40:40 20:45:52 85° 287° (WNW) 20:51:02 ?
HO-68 25 Oct 20:48:15 20:55:18 64° 66° (ENE) 21:02:25 435.675 MHz FM
ZACube-1 25 Oct 21:06:47 21:08:57 13° 56° (NE) 21:11:05 437.345 MHz
UKube-1 25 Oct 21:08:11 21:11:54 28° 63° (ENE) 21:15:38 145.840 MHz, 145.915 MHz
KITSAT 1 25 Oct 21:40:03 21:48:09 77° 237° (WSW) 21:56:11 435.175 FM
UOSAT-12 25 Oct 21:40:11 21:44:08 25° 29° (NNE) 21:48:03 437.025 FM, 437.400 FM
Oscar 11 25 Oct 21:48:11 21:52:25 56° 71° (ENE) 21:56:40 145.825 FM, Beacon 2401.500 USB
FUNcube-1 25 Oct 21:49:08 21:53:03 29° 65° (ENE) 21:56:55 145.950 - 145.970 MHz USB
SO-50 25 Oct 22:02:12 22:06:57 59° 235° (SW) 22:11:45 436.795 FM
RS-15 25 Oct 22:15:22 22:25:18 42° 111° (ESE) 22:35:11 29.354 - 29.394 USB, Beacon 29.352 USB
STRAND 1 25 Oct 22:21:12 22:24:20 17° 306° (NW) 22:27:28 ?
HO-68 25 Oct 22:37:15 22:43:29 32° 266° (W) 22:49:48 435.675 MHz FM
ZACube-1 25 Oct 22:40:05 22:44:40 83° 74° (ENE) 22:49:11 437.345 MHz
UKube-1 25 Oct 22:43:55 22:47:59 38° 262° (W) 22:52:05 145.840 MHz, 145.915 MHz
MaSat-1 25 Oct 23:17:08 23:18:38 12° 106° (ESE) 23:20:05 437.345 MHz
UOSAT-12 25 Oct 23:20:07 23:24:53 88° 230° (SW) 23:29:34 437.025 FM, 437.400 FM
FUNcube-1 25 Oct 23:25:02 23:29:19 39° 263° (W) 23:33:33 145.950 - 145.970 MHz USB
Oscar 11 25 Oct 23:25:56 23:28:57 18° 270° (W) 23:31:59 145.825 FM, Beacon 2401.500 USB
KITSAT 1 25 Oct 23:36:54 23:42:17 20° 258° (WSW) 23:47:40 435.175 FM
ZACube-1 26 Oct 00:19:21 00:21:38 14° 273° (W) 00:23:55 437.345 MHz
Oscar 10/S400 26 Oct 00:23:57 01:17:26 24° 227° (SW) 04:20:24 145.825 - 145.975 CW/USB, Beacon 145.810 USB
RS-15 26 Oct 00:26:04 00:37:01 73° 316° (NW) 00:48:04 29.354 - 29.394 USB, Beacon 29.352 USB
MaSat-1 26 Oct 00:49:51 00:53:50 81° 302° (WNW) 00:57:23 437.345 MHz
UOSAT-12 26 Oct 01:01:39 01:04:21 15° 250° (WSW) 01:07:02 437.025 FM, 437.400 FM
JAS-1B 26 Oct 01:13:17 01:15:13 11° 83° (E) 01:17:12 435.800 - 435.900 CW/SSB
AO-Echo 26 Oct 01:55:40 01:57:17 11° 83° (E) 01:58:54 ?
Oscar 16 26 Oct 02:08:22 02:12:33 25° 92° (E) 02:16:43 437.025 USB, Beacon 2401.1428
MaSat-1 26 Oct 02:28:07 02:29:53 13° 319° (NW) 02:31:35 437.345 MHz
Uribyol 2 26 Oct 02:30:40 02:34:11 18° 89° (E) 02:37:40 436.500 FM
ITAMSAT 1 26 Oct 02:36:53 02:40:36 19° 90° (E) 02:44:17 435.822 SSB
RS-15 26 Oct 02:41:20 02:51:27 40° 347° (NNW) 03:01:45 29.354 - 29.394 USB, Beacon 29.352 USB
JAS-1B 26 Oct 03:00:31 03:06:59 59° 102° (ESE) 03:14:40 435.800 - 435.900 CW/SSB
Oscar 19 26 Oct 03:01:05 03:06:12 66° 102° (ESE) 03:11:16 437.125 CW, 437.150 USB
Gurwin Techsat 1B 26 Oct 03:04:04 03:07:48 19° 89° (E) 03:11:31 435.225 FM
TMSAT-1 26 Oct 03:14:36 03:18:08 18° 88° (E) 03:21:39 436.925 FM
AO-27 26 Oct 03:22:03 03:27:05 45° 99° (E) 03:32:04 436.795 MHz FM
AO-Echo 26 Oct 03:31:41 03:37:00 70° 103° (ESE) 03:42:19 ?
Oscar 16 26 Oct 03:47:14 03:52:14 54° 291° (WNW) 03:57:12 437.025 USB, Beacon 2401.1428
Sapphire 26 Oct 03:56:29 04:01:08 30° 112° (ESE) 04:05:49 437.095 MHz 1200 baud AX-25 AFSK
Uribyol 2 26 Oct 04:09:01 04:14:16 76° 288° (WNW) 04:19:26 436.500 FM
ITAMSAT 1 26 Oct 04:15:24 04:20:38 72° 289° (WNW) 04:25:50 435.822 SSB
PCSat 26 Oct 04:18:13 04:23:22 47° 117° (ESE) 04:28:33 145.825 MHz
OPAL 26 Oct 04:36:12 04:40:50 36° 61° (ENE) 04:45:26 ?
Oscar 19 26 Oct 04:41:12 04:45:07 23° 302° (WNW) 04:49:01 437.125 CW, 437.150 USB
Gurwin Techsat 1B 26 Oct 04:43:01 04:48:21 74° 288° (WNW) 04:53:39 435.225 FM
JAS-1B 26 Oct 04:51:48 04:57:28 34° 299° (WNW) 05:03:59 435.800 - 435.900 CW/SSB
TMSAT-1 26 Oct 04:53:21 04:58:42 78° 287° (WNW) 05:03:59 436.925 FM
RS-15 26 Oct 04:56:37 05:07:02 44° 21° (NNE) 05:17:44 29.354 - 29.394 USB, Beacon 29.352 USB
JAS-2 26 Oct 05:00:47 05:04:32 14° 79° (E) 05:08:17 435.800 - 435.900 CW/SSB, 435.910 FM
AO-27 26 Oct 05:01:51 05:06:28 32° 298° (WNW) 05:11:03 436.795 MHz FM
AO-7 26 Oct 05:10:06 05:17:52 41° 98° (E) 05:25:35 29.400 - 29.500 MHz
AO-Echo 26 Oct 05:11:14 05:15:18 23° 302° (WNW) 05:19:22 ?
Uosat F 26 Oct 05:18:08 05:22:39 32° 95° (E) 05:27:09 435.120 FM
Oscar 16 26 Oct 05:29:20 05:30:30 11° 312° (NW) 05:31:41 437.025 USB, Beacon 2401.1428
Sapphire 26 Oct 05:38:59 05:44:18 56° 312° (NW) 05:49:41 437.095 MHz 1200 baud AX-25 AFSK
Uribyol 2 26 Oct 05:50:02 05:52:54 15° 308° (NW) 05:55:46 436.500 FM
ITAMSAT 1 26 Oct 05:56:33 05:59:16 14° 309° (NW) 06:01:58 435.822 SSB
PCSat 26 Oct 06:01:49 06:06:54 40° 318° (NW) 06:12:02 145.825 MHz
OPAL 26 Oct 06:14:54 06:19:41 39° 260° (W) 06:24:27 ?
STRAND 1 26 Oct 06:22:47 06:27:28 37° 64° (ENE) 06:32:10 ?
Gurwin Techsat 1B 26 Oct 06:24:34 06:27:28 15° 308° (NW) 06:30:21 435.225 FM
TMSAT-1 26 Oct 06:34:44 06:37:49 16° 307° (NW) 06:40:52 436.925 FM
JAS-2 26 Oct 06:43:25 06:51:05 60° 100° (E) 06:58:48 435.800 - 435.900 CW/SSB, 435.910 FM
Uosat F 26 Oct 06:56:48 07:01:33 41° 294° (WNW) 07:06:16 435.120 FM
AO-7 26 Oct 07:02:53 07:10:59 59° 299° (WNW) 07:19:04 29.400 - 29.500 MHz
RS-15 26 Oct 07:09:44 07:20:54 88° 50° (NE) 07:32:30 29.354 - 29.394 USB, Beacon 29.352 USB
Hamsat 26 Oct 07:10:44 07:14:55 60° 101° (E) 07:19:04 145.90 MHz
Sapphire 26 Oct 07:25:04 07:28:55 19° 336° (NNW) 07:32:47 437.095 MHz 1200 baud AX-25 AFSK
SO-67 26 Oct 07:25:53 07:27:07 12° 88° (E) 07:28:20 435.3500 MHz FM
PCSat 26 Oct 07:48:31 07:51:51 16° 342° (NNW) 07:55:11 145.825 MHz
STRAND 1 26 Oct 08:01:53 08:06:39 38° 263° (W) 08:11:27 ?
Saudisat 1A 26 Oct 08:04:04 08:08:13 43° 122° (ESE) 08:12:25 436.775 MHz
JAS-2 26 Oct 08:28:48 08:35:49 41° 299° (WNW) 08:42:58 435.800 - 435.900 CW/SSB, 435.910 FM
Hamsat 26 Oct 08:47:38 08:50:28 18° 299° (WNW) 08:53:18 145.90 MHz
MaSat-1 26 Oct 08:55:56 08:58:40 58° 56° (ENE) 09:01:07 437.345 MHz
AO-7 26 Oct 08:56:44 09:02:10 20° 322° (NW) 09:07:37 29.400 - 29.500 MHz
SO-67 26 Oct 08:57:03 09:00:28 59° 286° (WNW) 09:03:52 435.3500 MHz FM
Sapphire 26 Oct 09:12:01 09:14:34 13° 2° (N) 09:17:07 437.095 MHz 1200 baud AX-25 AFSK
RS-15 26 Oct 09:22:49 09:32:04 32° 254° (WSW) 09:41:40 29.354 - 29.394 USB, Beacon 29.352 USB
PCSat 26 Oct 09:34:49 09:37:35 14° 9° (N) 09:40:21 145.825 MHz
Saudisat 1A 26 Oct 09:43:49 09:47:54 36° 323° (NW) 09:52:00 436.775 MHz
HO-68 26 Oct 09:58:25 10:05:13 43° 98° (E) 10:11:58 435.675 MHz FM
JAS-2 26 Oct 10:16:03 10:18:57 13° 321° (NW) 10:21:53 435.800 - 435.900 CW/SSB, 435.910 FM
ZACube-1 26 Oct 10:27:05 10:28:24 11° 86° (E) 10:29:41 437.345 MHz
UKube-1 26 Oct 10:27:26 10:31:06 26° 94° (E) 10:34:45 145.840 MHz, 145.915 MHz
Sapphire 26 Oct 10:55:58 11:00:07 22° 28° (NNE) 11:04:17 437.095 MHz 1200 baud AX-25 AFSK
Oscar 11 26 Oct 11:07:07 11:11:24 60° 101° (E) 11:15:39 145.825 FM, Beacon 2401.500 USB
